�������C�����ː����j�^�v���󋵏��
Date,Time,Cs137(Bq/L),Cs134(Bq/L),�S��(Bq/L)
2017/03/26,00:00,0.72,0.060,ND
2017/03/26,00:10,0.73,0.061,ND
2017/03/26,00:20,0.74,0.045,ND
2017/03/26,00:30,0.76,0.045,ND
2017/03/26,00:40,0.73,0.065,ND
2017/03/26,00:50,0.74,0.065,ND
2017/03/26,01:00,0.77,0.067,ND
2017/03/26,01:10,0.79,0.057,ND
2017/03/26,01:20,0.80,0.048,ND
2017/03/26,01:30,0.77,0.057,ND
2017/03/26,01:40,0.75,0.064,ND
2017/03/26,01:50,0.73,0.066,ND
2017/03/26,02:00,0.72,0.061,ND
2017/03/26,02:10,0.72,0.061,ND
2017/03/26,02:20,0.73,0.058,ND
2017/03/26,02:30,0.87,0.036,ND
2017/03/26,02:40,0.73,0.061,ND
2017/03/26,02:50,0.86,0.037,ND
2017/03/26,03:00,0.84,0.045,ND
2017/03/26,03:10,0.70,0.078,ND
2017/03/26,03:20,0.69,0.081,ND
2017/03/26,03:30,0.69,0.071,ND
2017/03/26,03:40,0.73,0.056,ND
2017/03/26,03:50,0.76,0.058,ND
2017/03/26,04:00,0.76,0.058,ND
2017/03/26,04:10,0.75,0.060,ND
2017/03/26,04:20,0.77,0.058,ND
2017/03/26,04:30,0.79,0.066,ND
2017/03/26,04:40,0.77,0.071,ND
2017/03/26,04:50,0.78,0.076,ND
2017/03/26,05:00,0.80,0.072,8.8
2017/03/26,05:10,0.81,0.067,ND
2017/03/26,05:20,0.80,0.067,9.7
2017/03/26,05:30,0.79,0.068,11
2017/03/26,05:40,0.78,0.073,ND
2017/03/26,05:50,0.78,0.063,ND
2017/03/26,06:00,0.76,0.064,ND
2017/03/26,06:10,0.80,0.057,ND
2017/03/26,06:20,0.81,0.056,ND
2017/03/26,06:30,0.80,0.056,ND
2017/03/26,06:40,0.81,0.062,9.2
2017/03/26,06:50,0.81,0.068,8.9
2017/03/26,07:00,0.81,0.069,ND
2017/03/26,07:10,0.79,0.074,ND
2017/03/26,07:20,0.79,0.068,ND
2017/03/26,07:30,0.81,0.069,ND
2017/03/26,07:40,0.80,0.065,ND
2017/03/26,07:50,0.82,0.058,ND
2017/03/26,08:00,0.84,0.058,ND
2017/03/26,08:10,0.84,0.064,12
2017/03/26,08:20,0.84,0.070,13
2017/03/26,08:30,0.86,0.070,12
2017/03/26,08:40,0.88,0.063,10
2017/03/26,08:50,0.85,0.073,8.8
2017/03/26,09:00,0.86,0.078,9.3
2017/03/26,09:10,0.89,0.080,ND
2017/03/26,09:20,0.90,0.080,ND
2017/03/26,09:30,0.88,0.083,ND
2017/03/26,09:40,0.86,0.099,ND
2017/03/26,09:50,0.88,0.094,ND
2017/03/26,10:00,0.86,0.091,ND
2017/03/26,10:10,0.84,0.088,ND
2017/03/26,10:20,0.80,0.096,ND
2017/03/26,10:30,0.80,0.092,ND
2017/03/26,10:40,0.79,0.089,ND
2017/03/26,10:50,0.80,0.086,ND
2017/03/26,11:00,0.77,0.094,ND
2017/03/26,11:10,0.76,0.087,ND
2017/03/26,11:20,0.77,0.084,ND
2017/03/26,11:30,0.74,0.088,ND
2017/03/26,11:40,0.85,0.041,ND
2017/03/26,11:50,0.84,0.046,ND
2017/03/26,12:00,0.73,0.072,ND
2017/03/26,12:10,0.76,0.062,ND
2017/03/26,12:20,0.75,0.060,ND
2017/03/26,12:30,0.74,0.060,ND
2017/03/26,12:40,0.73,0.062,ND
2017/03/26,12:50,0.70,0.060,ND
2017/03/26,13:00,0.70,0.050,ND
2017/03/26,13:10,0.66,0.063,ND
2017/03/26,13:20,0.67,0.058,ND
2017/03/26,13:30,0.67,0.059,ND
2017/03/26,13:40,0.69,0.050,ND
2017/03/26,13:50,0.69,0.055,ND
2017/03/26,14:00,0.70,0.065,ND
2017/03/26,14:10,0.72,0.053,ND
2017/03/26,14:20,0.71,0.053,ND
2017/03/26,14:30,0.69,0.051,8.9
2017/03/26,14:40,0.69,0.058,9.9
2017/03/26,14:50,0.70,0.057,8.8
2017/03/26,15:00,0.70,0.049,9.0
2017/03/26,15:10,0.71,0.054,10
2017/03/26,15:20,0.74,0.028,10
2017/03/26,15:30,0.71,0.055,8.8
2017/03/26,15:40,0.69,0.055,ND
2017/03/26,15:50,0.81,0.028,9.0
2017/03/26,16:00,0.85,ND,10
2017/03/26,16:10,0.80,0.030,8.9
2017/03/26,16:20,0.80,0.038,ND
2017/03/26,16:30,0.66,0.061,9.5
2017/03/26,16:40,0.68,0.058,13
2017/03/26,16:50,0.70,0.060,12
2017/03/26,17:00,0.68,0.075,10
2017/03/26,17:10,0.70,0.069,12
2017/03/26,17:20,0.70,0.063,13
2017/03/26,17:30,0.69,0.072,13
2017/03/26,17:40,0.67,0.081,11
2017/03/26,17:50,0.67,0.075,ND
2017/03/26,18:00,0.78,0.032,9.0
2017/03/26,18:10,0.77,0.035,ND
2017/03/26,18:20,0.78,0.031,ND
2017/03/26,18:30,0.82,ND,ND
2017/03/26,18:40,0.79,0.029,ND
2017/03/26,18:50,0.68,0.074,ND
2017/03/26,19:00,0.67,0.079,ND
2017/03/26,19:10,0.78,0.040,ND
2017/03/26,19:20,0.77,0.046,ND
2017/03/26,19:30,0.67,0.076,9.5
2017/03/26,19:40,0.69,0.069,ND
2017/03/26,19:50,0.68,0.061,ND
2017/03/26,20:00,0.70,0.051,9.6
2017/03/26,20:10,0.70,0.046,10
2017/03/26,20:20,0.71,0.045,ND
2017/03/26,20:30,0.73,0.044,ND
2017/03/26,20:40,0.90,ND,ND
2017/03/26,20:50,0.77,0.040,9.3
2017/03/26,21:00,0.96,ND,11
2017/03/26,21:10,0.94,0.032,11
2017/03/26,21:20,0.95,0.037,13
2017/03/26,21:30,0.81,0.070,16
2017/03/26,21:40,0.81,0.077,15
2017/03/26,21:50,0.82,0.072,13
2017/03/26,22:00,0.79,0.074,8.9
2017/03/26,22:10,0.87,0.043,ND
2017/03/26,22:20,0.87,0.036,ND
2017/03/26,22:30,0.85,0.029,ND
2017/03/26,22:40,0.84,0.033,ND
2017/03/26,22:50,0.81,0.039,ND
2017/03/26,23:00,0.82,0.030,ND
2017/03/26,23:10,0.71,0.057,ND
2017/03/26,23:20,0.70,0.059,ND
2017/03/26,23:30,0.71,0.064,ND
2017/03/26,23:40,0.70,0.054,ND
2017/03/26,23:50,0.71,0.054,9.7
